History Data

Date (GMT-7:00) CPM ACPM uSv/h Latitude Longitude Altitude CO CO2 TVOC HCHO Air Pressure Temperature Humidity Type
2025-10-11 12:39:51 17 16.90 0.085000 41.649648 41.62752893 0 0 0 0 0 0 0 0 STD5.60
2025-10-11 12:34:49 16 16.90 0.080000 41.649648 41.62752893 0 0 0 0 0 0 0 0 STD5.60
2025-10-11 12:29:47 11 17.60 0.055000 41.649648 41.62752893 0 0 0 0 0 0 0 0 STD5.60
2025-10-11 12:24:45 19 16.00 0.095000 41.649648 41.62752893 0 0 0 0 0 0 0 0 STD5.60
2025-10-11 12:19:43 17 16.70 0.085000 41.649648 41.62752893 0 0 0 0 0 0 0 0 STD5.60
2025-10-11 12:14:41 23 17.80 0.115000 41.649648 41.62752893 0 0 0 0 0 0 0 0 STD5.60
2025-10-11 12:09:23 17 15.70 0.085000 41.649648 41.62752893 0 0 0 0 0 0 0 0 STD5.60
2025-10-11 12:04:21 15 16.00 0.075000 41.649648 41.62752893 0 0 0 0 0 0 0 0 STD5.60
2025-10-11 11:59:19 15 19.00 0.075000 41.649648 41.62752893 0 0 0 0 0 0 0 0 STD5.60
2025-10-11 11:54:17 14 19.40 0.070000 41.649648 41.62752893 0 0 0 0 0 0 0 0 STD5.60
2025-10-11 11:49:15 14 18.10 0.070000 41.649648 41.62752893 0 0 0 0 0 0 0 0 STD5.60
2025-10-11 11:44:12 20 16.40 0.100000 41.649648 41.62752893 0 0 0 0 0 0 0 0 STD5.60
2025-10-11 11:39:10 13 17.00 0.065000 41.649648 41.62752893 0 0 0 0 0 0 0 0 STD5.60
2025-10-11 11:34:09 25 17.60 0.125000 41.649648 41.62752893 0 0 0 0 0 0 0 0 STD5.60
2025-10-11 11:29:06 8 17.00 0.040000 41.649648 41.62752893 0 0 0 0 0 0 0 0 STD5.60
2025-10-11 11:24:04 17 19.00 0.085000 41.649648 41.62752893 0 0 0 0 0 0 0 0 STD5.60
2025-10-11 11:19:02 24 17.80 0.120000 41.649648 41.62752893 0 0 0 0 0 0 0 0 STD5.60
2025-10-11 11:14:00 14 17.60 0.070000 41.649648 41.62752893 0 0 0 0 0 0 0 0 STD5.60
2025-10-11 11:08:56 12 20.20 0.060000 41.649648 41.62752893 0 0 0 0 0 0 0 0 STD5.60
2025-10-11 11:03:54 20 18.90 0.100000 41.649648 41.62752893 0 0 0 0 0 0 0 0 STD5.60
2025-10-11 10:58:51 24 18.80 0.120000 41.649648 41.62752893 0 0 0 0 0 0 0 0 STD5.60
2025-10-11 10:53:49 23 19.00 0.115000 41.649648 41.62752893 0 0 0 0 0 0 0 0 STD5.60
2025-10-11 10:48:48 20 15.30 0.100000 41.649648 41.62752893 0 0 0 0 0 0 0 0 STD5.60
2025-10-11 10:43:46 15 16.90 0.075000 41.649648 41.62752893 0 0 0 0 0 0 0 0 STD5.60
2025-10-11 10:38:43 10 19.50 0.050000 41.649648 41.62752893 0 0 0 0 0 0 0 0 STD5.60
2025-10-11 10:33:41 16 19.10 0.080000 41.649648 41.62752893 0 0 0 0 0 0 0 0 STD5.60
2025-10-11 10:28:39 26 19.30 0.130000 41.649648 41.62752893 0 0 0 0 0 0 0 0 STD5.60
2025-10-11 10:23:37 20 18.20 0.100000 41.649648 41.62752893 0 0 0 0 0 0 0 0 STD5.60
2025-10-11 10:18:35 18 17.60 0.090000 41.649648 41.62752893 0 0 0 0 0 0 0 0 STD5.60
2025-10-11 10:13:33 19 18.40 0.095000 41.649648 41.62752893 0 0 0 0 0 0 0 0 STD5.60
2025-10-11 10:08:29 17 17.60 0.085000 41.649648 41.62752893 0 0 0 0 0 0 0 0 STD5.60
2025-10-11 10:03:27 13 18.00 0.065000 41.649648 41.62752893 0 0 0 0 0 0 0 0 STD5.60
2025-10-11 09:58:25 23 18.30 0.115000 41.649648 41.62752893 0 0 0 0 0 0 0 0 STD5.60
2025-10-11 09:53:22 14 17.10 0.070000 41.649648 41.62752893 0 0 0 0 0 0 0 0 STD5.60
2025-10-11 09:48:20 19 19.00 0.095000 41.649648 41.62752893 0 0 0 0 0 0 0 0 STD5.60
2025-10-11 09:43:18 19 19.30 0.095000 41.649648 41.62752893 0 0 0 0 0 0 0 0 STD5.60
2025-10-11 09:38:16 13 17.00 0.065000 41.649648 41.62752893 0 0 0 0 0 0 0 0 STD5.60
2025-10-11 09:33:14 17 16.90 0.085000 41.649648 41.62752893 0 0 0 0 0 0 0 0 STD5.60
2025-10-11 09:28:12 20 16.80 0.100000 41.649648 41.62752893 0 0 0 0 0 0 0 0 STD5.60
2025-10-11 09:23:10 12 20.10 0.060000 41.649648 41.62752893 0 0 0 0 0 0 0 0 STD5.60
2025-10-11 09:18:08 27 23.40 0.135000 41.649648 41.62752893 0 0 0 0 0 0 0 0 STD5.60
2025-10-11 09:13:06 35 19.80 0.175000 41.649648 41.62752893 0 0 0 0 0 0 0 0 STD5.60
2025-10-11 09:08:00 21 17.00 0.105000 41.649648 41.62752893 0 0 0 0 0 0 0 0 STD5.60
2025-10-11 09:02:59 18 17.80 0.090000 41.649648 41.62752893 0 0 0 0 0 0 0 0 STD5.60
2025-10-11 08:57:57 17 18.60 0.085000 41.649648 41.62752893 0 0 0 0 0 0 0 0 STD5.60
2025-10-11 08:52:55 19 18.20 0.095000 41.649648 41.62752893 0 0 0 0 0 0 0 0 STD5.60
2025-10-11 08:47:52 23 18.40 0.115000 41.649648 41.62752893 0 0 0 0 0 0 0 0 STD5.60
2025-10-11 08:42:50 22 20.20 0.110000 41.649648 41.62752893 0 0 0 0 0 0 0 0 STD5.60
2025-10-11 08:37:48 21 19.60 0.105000 41.649648 41.62752893 0 0 0 0 0 0 0 0 STD5.60
2025-10-11 08:32:46 21 18.10 0.105000 41.649648 41.62752893 0 0 0 0 0 0 0 0 STD5.60
2025-10-11 08:27:43 17 17.70 0.085000 41.649648 41.62752893 0 0 0 0 0 0 0 0 STD5.60
2025-10-11 08:22:41 16 17.50 0.080000 41.649648 41.62752893 0 0 0 0 0 0 0 0 STD5.60
2025-10-11 08:17:39 14 17.40 0.070000 41.649648 41.62752893 0 0 0 0 0 0 0 0 STD5.60
2025-10-11 08:12:38 25 17.00 0.125000 41.649648 41.62752893 0 0 0 0 0 0 0 0 STD5.60
2025-10-11 08:07:33 14 16.80 0.070000 41.649648 41.62752893 0 0 0 0 0 0 0 0 STD5.60
2025-10-11 08:02:32 16 16.30 0.080000 41.649648 41.62752893 0 0 0 0 0 0 0 0 STD5.60
2025-10-11 07:57:29 10 15.70 0.050000 41.649648 41.62752893 0 0 0 0 0 0 0 0 STD5.60
2025-10-11 07:52:27 14 17.30 0.070000 41.649648 41.62752893 0 0 0 0 0 0 0 0 STD5.60
2025-10-11 07:47:25 20 19.90 0.100000 41.649648 41.62752893 0 0 0 0 0 0 0 0 STD5.60
2025-10-11 07:42:23 20 18.70 0.100000 41.649648 41.62752893 0 0 0 0 0 0 0 0 STD5.60
2025-10-11 07:37:21 12 16.60 0.060000 41.649648 41.62752893 0 0 0 0 0 0 0 0 STD5.60
2025-10-11 07:32:19 18 17.50 0.090000 41.649648 41.62752893 0 0 0 0 0 0 0 0 STD5.60
2025-10-11 07:27:17 20 17.80 0.100000 41.649648 41.62752893 0 0 0 0 0 0 0 0 STD5.60
2025-10-11 07:22:15 12 18.10 0.060000 41.649648 41.62752893 0 0 0 0 0 0 0 0 STD5.60
2025-10-11 07:17:13 25 20.10 0.125000 41.649648 41.62752893 0 0 0 0 0 0 0 0 STD5.60
2025-10-11 07:12:11 19 18.70 0.095000 41.649648 41.62752893 0 0 0 0 0 0 0 0 STD5.60
2025-10-11 07:07:06 15 16.60 0.075000 41.649648 41.62752893 0 0 0 0 0 0 0 0 STD5.60
2025-10-11 07:02:05 17 17.80 0.085000 41.649648 41.62752893 0 0 0 0 0 0 0 0 STD5.60
2025-10-11 06:57:03 18 19.70 0.090000 41.649648 41.62752893 0 0 0 0 0 0 0 0 STD5.60
2025-10-11 06:52:01 21 18.60 0.105000 41.649648 41.62752893 0 0 0 0 0 0 0 0 STD5.60
2025-10-11 06:46:59 23 17.80 0.115000 41.649648 41.62752893 0 0 0 0 0 0 0 0 STD5.60
2025-10-11 06:41:56 12 19.00 0.060000 41.649648 41.62752893 0 0 0 0 0 0 0 0 STD5.60
2025-10-11 06:36:55 23 20.00 0.115000 41.649648 41.62752893 0 0 0 0 0 0 0 0 STD5.60
2025-10-11 06:31:52 18 19.40 0.090000 41.649648 41.62752893 0 0 0 0 0 0 0 0 STD5.60
2025-10-11 06:26:50 21 18.80 0.105000 41.649648 41.62752893 0 0 0 0 0 0 0 0 STD5.60
2025-10-11 06:21:48 11 17.00 0.055000 41.649648 41.62752893 0 0 0 0 0 0 0 0 STD5.60
2025-10-11 06:16:46 14 16.90 0.070000 41.649648 41.62752893 0 0 0 0 0 0 0 0 STD5.60
2025-10-11 06:11:44 24 18.70 0.120000 41.649648 41.62752893 0 0 0 0 0 0 0 0 STD5.60
2025-10-11 06:06:39 18 18.10 0.090000 41.649648 41.62752893 0 0 0 0 0 0 0 0 STD5.60
2025-10-11 06:01:37 21 19.70 0.105000 41.649648 41.62752893 0 0 0 0 0 0 0 0 STD5.60
2025-10-11 05:56:35 19 19.80 0.095000 41.649648 41.62752893 0 0 0 0 0 0 0 0 STD5.60
2025-10-11 05:51:33 20 18.60 0.100000 41.649648 41.62752893 0 0 0 0 0 0 0 0 STD5.60
2025-10-11 05:46:31 17 19.10 0.085000 41.649648 41.62752893 0 0 0 0 0 0 0 0 STD5.60
2025-10-11 05:41:28 21 18.80 0.105000 41.649648 41.62752893 0 0 0 0 0 0 0 0 STD5.60
2025-10-11 05:36:26 11 18.40 0.055000 41.649648 41.62752893 0 0 0 0 0 0 0 0 STD5.60
2025-10-11 05:31:24 24 17.80 0.120000 41.649648 41.62752893 0 0 0 0 0 0 0 0 STD5.60
2025-10-11 05:21:20 21 21.40 0.105000 41.649648 41.62752893 0 0 0 0 0 0 0 0 STD5.60
2025-10-11 05:16:18 13 18.30 0.065000 41.649648 41.62752893 0 0 0 0 0 0 0 0 STD5.60
2025-10-11 05:11:16 16 19.30 0.080000 41.649648 41.62752893 0 0 0 0 0 0 0 0 STD5.60
2025-10-11 05:06:12 20 19.20 0.100000 41.649648 41.62752893 0 0 0 0 0 0 0 0 STD5.60
2025-10-11 05:01:09 19 16.90 0.095000 41.649648 41.62752893 0 0 0 0 0 0 0 0 STD5.60
2025-10-11 04:56:08 18 18.00 0.090000 41.649648 41.62752893 0 0 0 0 0 0 0 0 STD5.60
2025-10-11 04:51:05 29 17.80 0.145000 41.649648 41.62752893 0 0 0 0 0 0 0 0 STD5.60
2025-10-11 04:46:03 17 15.60 0.085000 41.649648 41.62752893 0 0 0 0 0 0 0 0 STD5.60
2025-10-11 04:41:01 12 16.40 0.060000 41.649648 41.62752893 0 0 0 0 0 0 0 0 STD5.60
2025-10-11 04:35:58 16 18.50 0.080000 41.649648 41.62752893 0 0 0 0 0 0 0 0 STD5.60
2025-10-11 04:30:57 18 17.40 0.090000 41.649648 41.62752893 0 0 0 0 0 0 0 0 STD5.60
2025-10-11 04:25:55 11 15.90 0.055000 41.649648 41.62752893 0 0 0 0 0 0 0 0 STD5.60
2025-10-11 04:20:52 15 16.70 0.075000 41.649648 41.62752893 0 0 0 0 0 0 0 0 STD5.60
2025-10-11 04:15:50 17 17.20 0.085000 41.649648 41.62752893 0 0 0 0 0 0 0 0 STD5.60
2025-10-11 04:10:48 12 14.80 0.060000 41.649648 41.62752893 0 0 0 0 0 0 0 0 STD5.60
2025-10-11 04:05:44 13 15.40 0.065000 41.649648 41.62752893 0 0 0 0 0 0 0 0 STD5.60
2025-10-11 04:00:43 22 20.10 0.110000 41.649648 41.62752893 0 0 0 0 0 0 0 0 STD5.60
2025-10-11 03:55:41 12 20.40 0.060000 41.649648 41.62752893 0 0 0 0 0 0 0 0 STD5.60
2025-10-11 03:50:38 16 19.10 0.080000 41.649648 41.62752893 0 0 0 0 0 0 0 0 STD5.60
2025-10-11 03:45:36 26 18.90 0.130000 41.649648 41.62752893 0 0 0 0 0 0 0 0 STD5.60
2025-10-11 03:40:34 16 19.60 0.080000 41.649648 41.62752893 0 0 0 0 0 0 0 0 STD5.60
2025-10-11 03:35:32 18 18.80 0.090000 41.649648 41.62752893 0 0 0 0 0 0 0 0 STD5.60
2025-10-11 03:30:30 20 16.60 0.100000 41.649648 41.62752893 0 0 0 0 0 0 0 0 STD5.60
2025-10-11 03:25:28 19 16.40 0.095000 41.649648 41.62752893 0 0 0 0 0 0 0 0 STD5.60
2025-10-11 03:20:26 14 16.10 0.070000 41.649648 41.62752893 0 0 0 0 0 0 0 0 STD5.60
2025-10-11 03:15:23 14 17.40 0.070000 41.649648 41.62752893 0 0 0 0 0 0 0 0 STD5.60
2025-10-11 03:10:21 21 18.70 0.105000 41.649648 41.62752893 0 0 0 0 0 0 0 0 STD5.60
2025-10-11 03:05:17 11 18.60 0.055000 41.649648 41.62752893 0 0 0 0 0 0 0 0 STD5.60
2025-10-11 03:00:15 20 19.70 0.100000 41.649648 41.62752893 0 0 0 0 0 0 0 0 STD5.60
2025-10-11 02:55:13 23 19.20 0.115000 41.649648 41.62752893 0 0 0 0 0 0 0 0 STD5.60
2025-10-11 02:50:11 24 16.80 0.120000 41.649648 41.62752893 0 0 0 0 0 0 0 0 STD5.60
2025-10-11 02:45:09 14 17.00 0.070000 41.649648 41.62752893 0 0 0 0 0 0 0 0 STD5.60
2025-10-11 02:40:06 19 18.30 0.095000 41.649648 41.62752893 0 0 0 0 0 0 0 0 STD5.60
2025-10-11 02:35:05 21 18.70 0.105000 41.649648 41.62752893 0 0 0 0 0 0 0 0 STD5.60
2025-10-11 02:30:03 14 17.20 0.070000 41.649648 41.62752893 0 0 0 0 0 0 0 0 STD5.60
2025-10-11 02:25:01 11 14.90 0.055000 41.649648 41.62752893 0 0 0 0 0 0 0 0 STD5.60
2025-10-11 02:19:58 13 14.80 0.065000 41.649648 41.62752893 0 0 0 0 0 0 0 0 STD5.60
2025-10-11 02:14:56 14 17.40 0.070000 41.649648 41.62752893 0 0 0 0 0 0 0 0 STD5.60
2025-10-11 02:09:54 17 16.70 0.085000 41.649648 41.62752893 0 0 0 0 0 0 0 0 STD5.60
2025-10-11 02:04:50 20 16.10 0.100000 41.649648 41.62752893 0 0 0 0 0 0 0 0 STD5.60
2025-10-11 01:59:48 15 19.00 0.075000 41.649648 41.62752893 0 0 0 0 0 0 0 0 STD5.60
2025-10-11 01:54:46 27 18.60 0.135000 41.649648 41.62752893 0 0 0 0 0 0 0 0 STD5.60
2025-10-11 01:49:44 23 16.60 0.115000 41.649648 41.62752893 0 0 0 0 0 0 0 0 STD5.60
2025-10-11 01:44:41 19 18.00 0.095000 41.649648 41.62752893 0 0 0 0 0 0 0 0 STD5.60
2025-10-11 01:39:39 20 17.60 0.100000 41.649648 41.62752893 0 0 0 0 0 0 0 0 STD5.60
2025-10-11 01:34:37 15 15.00 0.075000 41.649648 41.62752893 0 0 0 0 0 0 0 0 STD5.60
2025-10-11 01:29:36 15 14.50 0.075000 41.649648 41.62752893 0 0 0 0 0 0 0 0 STD5.60
2025-10-11 01:24:34 7 16.80 0.035000 41.649648 41.62752893 0 0 0 0 0 0 0 0 STD5.60
2025-10-11 01:19:31 20 18.20 0.100000 41.649648 41.62752893 0 0 0 0 0 0 0 0 STD5.60
2025-10-11 01:14:30 19 18.90 0.095000 41.649648 41.62752893 0 0 0 0 0 0 0 0 STD5.60
2025-10-11 01:09:28 19 18.50 0.095000 41.649648 41.62752893 0 0 0 0 0 0 0 0 STD5.60
2025-10-11 01:04:23 12 16.10 0.060000 41.649648 41.62752893 0 0 0 0 0 0 0 0 STD5.60
2025-10-11 00:59:21 11 16.10 0.055000 41.649648 41.62752893 0 0 0 0 0 0 0 0 STD5.60
2025-10-11 00:54:20 13 17.40 0.065000 41.649648 41.62752893 0 0 0 0 0 0 0 0 STD5.60
2025-10-11 00:49:17 21 17.50 0.105000 41.649648 41.62752893 0 0 0 0 0 0 0 0 STD5.60
2025-10-11 00:44:14 18 15.00 0.090000 41.649648 41.62752893 0 0 0 0 0 0 0 0 STD5.60
2025-10-11 00:39:12 9 16.80 0.045000 41.649648 41.62752893 0 0 0 0 0 0 0 0 STD5.60
2025-10-11 00:34:10 22 17.40 0.110000 41.649648 41.62752893 0 0 0 0 0 0 0 0 STD5.60
2025-10-11 00:29:08 15 15.20 0.075000 41.649648 41.62752893 0 0 0 0 0 0 0 0 STD5.60
2025-10-11 00:24:07 9 18.50 0.045000 41.649648 41.62752893 0 0 0 0 0 0 0 0 STD5.60
2025-10-11 00:19:04 22 19.20 0.110000 41.649648 41.62752893 0 0 0 0 0 0 0 0 STD5.60
2025-10-11 00:14:02 15 16.40 0.075000 41.649648 41.62752893 0 0 0 0 0 0 0 0 STD5.60
2025-10-11 00:08:58 15 14.90 0.075000 41.649648 41.62752893 0 0 0 0 0 0 0 0 STD5.60
2025-10-11 00:03:56 8 16.40 0.040000 41.649648 41.62752893 0 0 0 0 0 0 0 0 STD5.60
2025-10-10 23:58:54 15 17.90 0.075000 41.649648 41.62752893 0 0 0 0 0 0 0 0 STD5.60
2025-10-10 23:53:53 19 17.40 0.095000 41.649648 41.62752893 0 0 0 0 0 0 0 0 STD5.60
2025-10-10 23:48:51 17 17.90 0.085000 41.649648 41.62752893 0 0 0 0 0 0 0 0 STD5.60
2025-10-10 23:43:48 19 19.40 0.095000 41.649648 41.62752893 0 0 0 0 0 0 0 0 STD5.60
2025-10-10 23:38:47 15 18.70 0.075000 41.649648 41.62752893 0 0 0 0 0 0 0 0 STD5.60
2025-10-10 23:33:44 15 17.80 0.075000 41.649648 41.62752893 0 0 0 0 0 0 0 0 STD5.60
2025-10-10 23:28:42 20 17.70 0.100000 41.649648 41.62752893 0 0 0 0 0 0 0 0 STD5.60
2025-10-10 23:23:40 11 18.10 0.055000 41.649648 41.62752893 0 0 0 0 0 0 0 0 STD5.60
2025-10-10 23:18:38 21 18.50 0.105000 41.649648 41.62752893 0 0 0 0 0 0 0 0 STD5.60
2025-10-10 23:13:35 19 17.30 0.095000 41.649648 41.62752893 0 0 0 0 0 0 0 0 STD5.60
2025-10-10 23:08:31 12 17.20 0.060000 41.649648 41.62752893 0 0 0 0 0 0 0 0 STD5.60
2025-10-10 23:03:29 20 18.30 0.100000 41.649648 41.62752893 0 0 0 0 0 0 0 0 STD5.60
2025-10-10 22:58:27 18 18.70 0.090000 41.649648 41.62752893 0 0 0 0 0 0 0 0 STD5.60
2025-10-10 22:53:25 23 18.90 0.115000 41.649648 41.62752893 0 0 0 0 0 0 0 0 STD5.60
2025-10-10 22:48:23 18 18.20 0.090000 41.649648 41.62752893 0 0 0 0 0 0 0 0 STD5.60
2025-10-10 22:43:20 22 17.70 0.110000 41.649648 41.62752893 0 0 0 0 0 0 0 0 STD5.60
2025-10-10 22:38:19 14 19.20 0.070000 41.649648 41.62752893 0 0 0 0 0 0 0 0 STD5.60
2025-10-10 22:33:17 13 18.90 0.065000 41.649648 41.62752893 0 0 0 0 0 0 0 0 STD5.60
2025-10-10 22:28:14 21 17.60 0.105000 41.649648 41.62752893 0 0 0 0 0 0 0 0 STD5.60
2025-10-10 22:23:13 17 17.80 0.085000 41.649648 41.62752893 0 0 0 0 0 0 0 0 STD5.60
2025-10-10 22:18:10 15 16.40 0.075000 41.649648 41.62752893 0 0 0 0 0 0 0 0 STD5.60
2025-10-10 22:13:08 22 19.60 0.110000 41.649648 41.62752893 0 0 0 0 0 0 0 0 STD5.60
2025-10-10 22:08:04 26 21.30 0.130000 41.649648 41.62752893 0 0 0 0 0 0 0 0 STD5.60
2025-10-10 22:03:03 19 18.60 0.095000 41.649648 41.62752893 0 0 0 0 0 0 0 0 STD5.60
2025-10-10 21:58:00 20 18.80 0.100000 41.649648 41.62752893 0 0 0 0 0 0 0 0 STD5.60
2025-10-10 21:52:58 19 18.10 0.095000 41.649648 41.62752893 0 0 0 0 0 0 0 0 STD5.60
2025-10-10 21:47:56 17 16.80 0.085000 41.649648 41.62752893 0 0 0 0 0 0 0 0 STD5.60
2025-10-10 21:42:54 17 18.50 0.085000 41.649648 41.62752893 0 0 0 0 0 0 0 0 STD5.60
2025-10-10 21:37:52 17 18.60 0.085000 41.649648 41.62752893 0 0 0 0 0 0 0 0 STD5.60
2025-10-10 21:32:50 21 16.90 0.105000 41.649648 41.62752893 0 0 0 0 0 0 0 0 STD5.60
2025-10-10 21:27:48 19 16.70 0.095000 41.649648 41.62752893 0 0 0 0 0 0 0 0 STD5.60
2025-10-10 21:22:46 21 15.50 0.105000 41.649648 41.62752893 0 0 0 0 0 0 0 0 STD5.60
2025-10-10 21:17:44 11 15.80 0.055000 41.649648 41.62752893 0 0 0 0 0 0 0 0 STD5.60
2025-10-10 21:12:42 21 18.00 0.105000 41.649648 41.62752893 0 0 0 0 0 0 0 0 STD5.60
2025-10-10 21:07:38 18 17.90 0.090000 41.649648 41.62752893 0 0 0 0 0 0 0 0 STD5.60
2025-10-10 21:02:35 15 18.80 0.075000 41.649648 41.62752893 0 0 0 0 0 0 0 0 STD5.60
2025-10-10 20:57:34 16 20.90 0.080000 41.649648 41.62752893 0 0 0 0 0 0 0 0 STD5.60
2025-10-10 20:52:32 27 19.10 0.135000 41.649648 41.62752893 0 0 0 0 0 0 0 0 STD5.60
2025-10-10 20:47:29 12 17.90 0.060000 41.649648 41.62752893 0 0 0 0 0 0 0 0 STD5.60
2025-10-10 20:42:27 23 20.10 0.115000 41.649648 41.62752893 0 0 0 0 0 0 0 0 STD5.60
2025-10-10 20:37:25 20 19.70 0.100000 41.649648 41.62752893 0 0 0 0 0 0 0 0 STD5.60
2025-10-10 20:32:23 22 19.90 0.110000 41.649648 41.62752893 0 0 0 0 0 0 0 0 STD5.60
2025-10-10 20:27:20 21 18.30 0.105000 41.649648 41.62752893 0 0 0 0 0 0 0 0 STD5.60
2025-10-10 20:22:18 17 17.00 0.085000 41.649648 41.62752893 0 0 0 0 0 0 0 0 STD5.60
2025-10-10 20:17:16 18 18.00 0.090000 41.649648 41.62752893 0 0 0 0 0 0 0 0 STD5.60
2025-10-10 20:12:13 20 18.20 0.100000 41.649648 41.62752893 0 0 0 0 0 0 0 0 STD5.60
2025-10-10 20:07:09 23 18.50 0.115000 41.649648 41.62752893 0 0 0 0 0 0 0 0 STD5.60
2025-10-10 20:02:07 17 18.20 0.085000 41.649648 41.62752893 0 0 0 0 0 0 0 0 STD5.60
2025-10-10 19:57:05 25 18.10 0.125000 41.649648 41.62752893 0 0 0 0 0 0 0 0 STD5.60
2025-10-10 19:52:04 22 19.10 0.110000 41.649648 41.62752893 0 0 0 0 0 0 0 0 STD5.60
2025-10-10 19:47:01 18 18.90 0.090000 41.649648 41.62752893 0 0 0 0 0 0 0 0 STD5.60
2025-10-10 19:41:58 19 17.50 0.095000 41.649648 41.62752893 0 0 0 0 0 0 0 0 STD5.60
2025-10-10 19:36:57 11 17.50 0.055000 41.649648 41.62752893 0 0 0 0 0 0 0 0 STD5.60
2025-10-10 19:31:54 22 16.60 0.110000 41.649648 41.62752893 0 0 0 0 0 0 0 0 STD5.60
2025-10-10 19:26:52 20 17.80 0.100000 41.649648 41.62752893 0 0 0 0 0 0 0 0 STD5.60
2025-10-10 19:21:50 23 19.30 0.115000 41.649648 41.62752893 0 0 0 0 0 0 0 0 STD5.60
2025-10-10 19:16:48 19 18.10 0.095000 41.649648 41.62752893 0 0 0 0 0 0 0 0 STD5.60
2025-10-10 19:11:46 17 18.80 0.085000 41.649648 41.62752893 0 0 0 0 0 0 0 0 STD5.60
2025-10-10 19:06:41 23 20.40 0.115000 41.649648 41.62752893 0 0 0 0 0 0 0 0 STD5.60
2025-10-10 19:01:39 23 19.60 0.115000 41.649648 41.62752893 0 0 0 0 0 0 0 0 STD5.60
2025-10-10 18:56:37 21 18.40 0.105000 41.649648 41.62752893 0 0 0 0 0 0 0 0 STD5.60
2025-10-10 18:51:35 18 18.30 0.090000 41.649648 41.62752893 0 0 0 0 0 0 0 0 STD5.60
2025-10-10 18:46:33 22 17.20 0.110000 41.649648 41.62752893 0 0 0 0 0 0 0 0 STD5.60
2025-10-10 18:41:30 13 16.30 0.065000 41.649648 41.62752893 0 0 0 0 0 0 0 0 STD5.60
2025-10-10 18:36:29 16 16.90 0.080000 41.649648 41.62752893 0 0 0 0 0 0 0 0 STD5.60
2025-10-10 18:31:26 17 17.10 0.085000 41.649648 41.62752893 0 0 0 0 0 0 0 0 STD5.60
2025-10-10 18:26:24 19 18.00 0.095000 41.649648 41.62752893 0 0 0 0 0 0 0 0 STD5.60
2025-10-10 18:21:22 22 17.10 0.110000 41.649648 41.62752893 0 0 0 0 0 0 0 0 STD5.60
2025-10-10 18:16:20 19 17.30 0.095000 41.649648 41.62752893 0 0 0 0 0 0 0 0 STD5.60
2025-10-10 18:11:18 21 19.70 0.105000 41.649648 41.62752893 0 0 0 0 0 0 0 0 STD5.60
2025-10-10 18:06:14 36 19.90 0.180000 41.649648 41.62752893 0 0 0 0 0 0 0 0 STD5.60
2025-10-10 18:01:11 18 18.30 0.090000 41.649648 41.62752893 0 0 0 0 0 0 0 0 STD5.60
2025-10-10 17:56:09 27 17.90 0.135000 41.649648 41.62752893 0 0 0 0 0 0 0 0 STD5.60
2025-10-10 17:51:08 13 17.80 0.065000 41.649648 41.62752893 0 0 0 0 0 0 0 0 STD5.60
2025-10-10 17:41:04 28 19.30 0.140000 41.649648 41.62752893 0 0 0 0 0 0 0 0 STD5.60
2025-10-10 17:36:01 26 19.10 0.130000 41.649648 41.62752893 0 0 0 0 0 0 0 0 STD5.60
2025-10-10 17:30:59 8 19.60 0.040000 41.649648 41.62752893 0 0 0 0 0 0 0 0 STD5.60
2025-10-10 17:25:57 17 21.00 0.085000 41.649648 41.62752893 0 0 0 0 0 0 0 0 STD5.60
2025-10-10 17:20:55 20 18.90 0.100000 41.649648 41.62752893 0 0 0 0 0 0 0 0 STD5.60
2025-10-10 17:15:53 20 16.50 0.100000 41.649648 41.62752893 0 0 0 0 0 0 0 0 STD5.60
2025-10-10 17:10:50 18 14.90 0.090000 41.649648 41.62752893 0 0 0 0 0 0 0 0 STD5.60
2025-10-10 17:05:48 17 17.20 0.085000 41.649648 41.62752893 0 0 0 0 0 0 0 0 STD5.60
2025-10-10 17:00:44 20 19.20 0.100000 41.649648 41.62752893 0 0 0 0 0 0 0 0 STD5.60
2025-10-10 16:55:42 15 17.10 0.075000 41.649648 41.62752893 0 0 0 0 0 0 0 0 STD5.60
2025-10-10 16:50:40 16 17.70 0.080000 41.649648 41.62752893 0 0 0 0 0 0 0 0 STD5.60
2025-10-10 16:45:38 16 18.70 0.080000 41.649648 41.62752893 0 0 0 0 0 0 0 0 STD5.60
2025-10-10 16:40:36 21 19.90 0.105000 41.649648 41.62752893 0 0 0 0 0 0 0 0 STD5.60
2025-10-10 16:35:34 22 22.30 0.110000 41.649648 41.62752893 0 0 0 0 0 0 0 0 STD5.60
2025-10-10 16:30:32 17 20.60 0.085000 41.649648 41.62752893 0 0 0 0 0 0 0 0 STD5.60
2025-10-10 16:25:29 20 18.90 0.100000 41.649648 41.62752893 0 0 0 0 0 0 0 0 STD5.60
2025-10-10 16:20:28 23 18.80 0.115000 41.649648 41.62752893 0 0 0 0 0 0 0 0 STD5.60
2025-10-10 16:15:26 19 17.50 0.095000 41.649648 41.62752893 0 0 0 0 0 0 0 0 STD5.60
2025-10-10 16:10:23 15 18.40 0.075000 41.649648 41.62752893 0 0 0 0 0 0 0 0 STD5.60
2025-10-10 16:05:18 20 18.40 0.100000 41.649648 41.62752893 0 0 0 0 0 0 0 0 STD5.60
2025-10-10 16:00:16 10 16.90 0.050000 41.649648 41.62752893 0 0 0 0 0 0 0 0 STD5.60
2025-10-10 15:55:14 9 17.80 0.045000 41.649648 41.62752893 0 0 0 0 0 0 0 0 STD5.60
2025-10-10 15:50:12 20 18.20 0.100000 41.649648 41.62752893 0 0 0 0 0 0 0 0 STD5.60
2025-10-10 15:45:10 21 19.40 0.105000 41.649648 41.62752893 0 0 0 0 0 0 0 0 STD5.60
2025-10-10 15:40:07 21 19.60 0.105000 41.649648 41.62752893 0 0 0 0 0 0 0 0 STD5.60
2025-10-10 15:35:06 21 17.30 0.105000 41.649648 41.62752893 0 0 0 0 0 0 0 0 STD5.60
2025-10-10 15:30:04 21 16.80 0.105000 41.649648 41.62752893 0 0 0 0 0 0 0 0 STD5.60
2025-10-10 15:25:02 17 18.30 0.085000 41.649648 41.62752893 0 0 0 0 0 0 0 0 STD5.60
2025-10-10 15:19:59 20 19.00 0.100000 41.649648 41.62752893 0 0 0 0 0 0 0 0 STD5.60
2025-10-10 15:14:57 14 16.50 0.070000 41.649648 41.62752893 0 0 0 0 0 0 0 0 STD5.60
2025-10-10 15:09:55 12 16.20 0.060000 41.649648 41.62752893 0 0 0 0 0 0 0 0 STD5.60
2025-10-10 15:04:52 17 16.20 0.085000 41.649648 41.62752893 0 0 0 0 0 0 0 0 STD5.60
2025-10-10 14:59:49 17 15.70 0.085000 41.649648 41.62752893 0 0 0 0 0 0 0 0 STD5.60
2025-10-10 14:54:47 18 17.30 0.090000 41.649648 41.62752893 0 0 0 0 0 0 0 0 STD5.60
2025-10-10 14:49:45 22 17.70 0.110000 41.649648 41.62752893 0 0 0 0 0 0 0 0 STD5.60
2025-10-10 14:44:43 28 16.00 0.140000 41.649648 41.62752893 0 0 0 0 0 0 0 0 STD5.60
2025-10-10 14:39:41 19 14.00 0.095000 41.649648 41.62752893 0 0 0 0 0 0 0 0 STD5.60
2025-10-10 14:34:39 15 16.50 0.075000 41.649648 41.62752893 0 0 0 0 0 0 0 0 STD5.60
2025-10-10 14:29:36 20 17.00 0.100000 41.649648 41.62752893 0 0 0 0 0 0 0 0 STD5.60
2025-10-10 14:24:34 12 17.30 0.060000 41.649648 41.62752893 0 0 0 0 0 0 0 0 STD5.60
2025-10-10 14:19:32 19 19.50 0.095000 41.649648 41.62752893 0 0 0 0 0 0 0 0 STD5.60
2025-10-10 14:14:30 19 16.90 0.095000 41.649648 41.62752893 0 0 0 0 0 0 0 0 STD5.60
2025-10-10 14:09:28 22 16.20 0.110000 41.649648 41.62752893 0 0 0 0 0 0 0 0 STD5.60
2025-10-10 14:04:24 17 17.50 0.085000 41.649648 41.62752893 0 0 0 0 0 0 0 0 STD5.60
2025-10-10 13:59:22 14 16.80 0.070000 41.649648 41.62752893 0 0 0 0 0 0 0 0 STD5.60
2025-10-10 13:54:20 22 16.50 0.110000 41.649648 41.62752893 0 0 0 0 0 0 0 0 STD5.60
2025-10-10 13:49:18 19 16.40 0.095000 41.649648 41.62752893 0 0 0 0 0 0 0 0 STD5.60
2025-10-10 13:44:16 20 16.80 0.100000 41.649648 41.62752893 0 0 0 0 0 0 0 0 STD5.60
2025-10-10 13:39:13 20 16.80 0.100000 41.649648 41.62752893 0 0 0 0 0 0 0 0 STD5.60
2025-10-10 13:34:11 14 18.20 0.070000 41.649648 41.62752893 0 0 0 0 0 0 0 0 STD5.60
2025-10-10 13:29:09 19 15.90 0.095000 41.649648 41.62752893 0 0 0 0 0 0 0 0 STD5.60
2025-10-10 13:24:07 15 13.90 0.075000 41.649648 41.62752893 0 0 0 0 0 0 0 0 STD5.60
2025-10-10 13:19:04 19 15.40 0.095000 41.649648 41.62752893 0 0 0 0 0 0 0 0 STD5.60
2025-10-10 13:14:03 15 11.80 0.075000 41.649648 41.62752893 0 0 0 0 0 0 0 0 STD5.60
2025-10-10 13:09:01 11 3.90 0.055000 41.649648 41.62752893 0 0 0 0 0 0 0 0 STD5.60
2025-10-10 13:03:56 19 19.90 0.095000 41.649648 41.62752893 0 0 0 0 0 0 0 0 STD5.60
2025-10-10 12:58:53 20 16.70 0.100000 41.649648 41.62752893 0 0 0 0 0 0 0 0 STD5.60
2025-10-10 12:53:51 16 15.90 0.080000 41.649648 41.62752893 0 0 0 0 0 0 0 0 STD5.60
2025-10-10 12:48:49 16 18.50 0.080000 41.649648 41.62752893 0 0 0 0 0 0 0 0 STD5.60
2025-10-10 12:43:47 25 18.40 0.125000 41.649648 41.62752893 0 0 0 0 0 0 0 0 STD5.60
2025-10-10 12:38:45 15 18.50 0.075000 41.649648 41.62752893 0 0 0 0 0 0 0 0 STD5.60
2025-10-10 12:33:43 11 19.10 0.055000 41.649648 41.62752893 0 0 0 0 0 0 0 0 STD5.60
2025-10-10 12:28:40 23 18.80 0.115000 41.649648 41.62752893 0 0 0 0 0 0 0 0 STD5.60
2025-10-10 12:23:38 18 16.90 0.090000 41.649648 41.62752893 0 0 0 0 0 0 0 0 STD5.60
2025-10-10 12:18:36 12 14.90 0.060000 41.649648 41.62752893 0 0 0 0 0 0 0 0 STD5.60
2025-10-10 12:13:34 17 17.70 0.085000 41.649648 41.62752893 0 0 0 0 0 0 0 0 STD5.60
2025-10-10 12:08:32 18 19.10 0.090000 41.649648 41.62752893 0 0 0 0 0 0 0 0 STD5.60
2025-10-10 12:03:27 10 17.00 0.050000 41.649648 41.62752893 0 0 0 0 0 0 0 0 STD5.60
2025-10-10 11:58:25 16 16.50 0.080000 41.649648 41.62752893 0 0 0 0 0 0 0 0 STD5.60
2025-10-10 11:53:23 14 17.00 0.070000 41.649648 41.62752893 0 0 0 0 0 0 0 0 STD5.60
2025-10-10 11:48:24 14 18.30 0.070000 41.649648 41.62752893 0 0 0 0 0 0 0 0 STD5.60
2025-10-10 11:43:20 19 17.10 0.095000 41.649648 41.62752893 0 0 0 0 0 0 0 0 STD5.60
2025-10-10 11:38:18 13 16.90 0.065000 41.649648 41.62752893 0 0 0 0 0 0 0 0 STD5.60
2025-10-10 11:33:16 21 17.40 0.105000 41.649648 41.62752893 0 0 0 0 0 0 0 0 STD5.60
2025-10-10 11:28:15 10 16.60 0.050000 41.649648 41.62752893 0 0 0 0 0 0 0 0 STD5.60
2025-10-10 11:23:13 17 17.10 0.085000 41.649648 41.62752893 0 0 0 0 0 0 0 0 STD5.60
Geiger Counter World Map       A real time radiation map.     Copyright 2015 All rights reserved.